Kalaeloa, HI

4:40 PM HST on August 16, 2017 (GMT -1000)
Kalaeloa (John Rodgers Field)

Weather History for PHJR - May, 2013

Change the Weather History Date:

Wednesday, May 15, 2013

  Actual Average (PHHI) Record (PHHI)
Temperature  
Mean Temperature 74 °F -  
Max Temperature 82 °F 76 °F 85 °F (2016)
Min Temperature 66 °F 63 °F 59 °F (2012)
Cooling Degree Days 9    
Growing Degree Days 24 (Base 50)    
Moisture  
Dew Point 65 °F    
Average Humidity 70    
Maximum Humidity 90    
Minimum Humidity 52    
Precipitation  
Precipitation 0.00 in - - ()
Sea Level Pressure  
Sea Level Pressure 30.14 in    
Wind  
Wind Speed 4 mph (ENE)    
Max Wind Speed 10 mph    
Max Gust Speed 20 mph    
Visibility 10 miles    
Events      
Averages and records for this station are not official NWS values.
T = Trace of Precipitation, MM = Missing Value Source: NWS Daily Summary

Daily Weather History Graph

Daily Weather History Graph

Search for Another Location

Airport or City:

Trip Planner

Search our weather history database for the weather conditions in past years. The results will help you decide how hot, cold, wet, or windy it might be!

Date:

Astronomy

May. 15, 2013 Rise Set
Actual Time 5:53 AM HST 7:03 PM HST
Civil Twilight 5:30 AM HST 7:27 PM HST
Nautical Twilight 5:01 AM HST 7:55 PM HST
Astronomical Twilight 4:32 AM HST 8:25 PM HST
Moon 10:32 AM HST (5/15) 11:43 PM HST (5/15)
Length of Visible Light 13h 57m
Length of Day
13h 09m
Waxing Crescent, 29% of the Moon is Illuminated
May 15
Waxing Crescent
May 17
First Quarter
May 24
Full
May 31
Last Quarter
Jun 8
New

Hourly Weather History & Observations

Time (HST) Temp. Heat Index Dew Point Humidity Pressure Visibility Wind Dir Wind Speed Gust Speed Precip Events Conditions
12:53 AM 72.0 °F - 64.9 °F 78% 30.14 in 10.0 mi ENE 4.6 mph - N/A   Clear
1:53 AM 72.0 °F - 64.9 °F 78% 30.12 in 10.0 mi ENE 5.8 mph - N/A   Partly Cloudy
2:53 AM 72.0 °F - 64.9 °F 78% 30.12 in 10.0 mi ENE 3.5 mph - N/A   Clear
3:53 AM 70.0 °F - 64.0 °F 81% 30.11 in 10.0 mi Calm Calm - N/A   Clear
4:53 AM 66.9 °F - 64.0 °F 90% 30.11 in 10.0 mi Calm Calm - N/A   Partly Cloudy
5:53 AM 68.0 °F - 64.0 °F 87% 30.12 in 10.0 mi North 3.5 mph - N/A   Partly Cloudy
6:53 AM 71.1 °F - 64.9 °F 81% 30.14 in 10.0 mi Calm Calm - N/A   Partly Cloudy
7:53 AM 75.9 °F - 64.9 °F 69% 30.15 in 10.0 mi Variable 6.9 mph - N/A   Clear
8:53 AM 79.0 °F - 64.9 °F 62% 30.16 in 10.0 mi ENE 8.1 mph - N/A   Scattered Clouds
9:53 AM 79.0 °F - 64.0 °F 60% 30.16 in 10.0 mi ENE 8.1 mph - N/A   Mostly Cloudy
10:53 AM 79.0 °F - 63.0 °F 58% 30.15 in 10.0 mi Variable 6.9 mph 18.4 mph N/A   Mostly Cloudy
11:05 AM 80.6 °F 81.8 °F 62.6 °F 54% 30.13 in 10.0 mi Variable 6.9 mph 16.1 mph N/A   Mostly Cloudy
11:53 AM 82.0 °F 83.8 °F 64.9 °F 56% 30.14 in 10.0 mi East 9.2 mph 19.6 mph N/A   Mostly Cloudy
12:53 PM 81.0 °F 82.2 °F 63.0 °F 54% 30.12 in 10.0 mi ENE 6.9 mph 19.6 mph N/A   Mostly Cloudy
1:53 PM 82.9 °F 84.4 °F 64.0 °F 53% 30.12 in 10.0 mi Variable 5.8 mph - N/A   Mostly Cloudy
2:53 PM 82.0 °F 83.1 °F 63.0 °F 52% 30.11 in 10.0 mi East 8.1 mph - N/A   Mostly Cloudy
3:53 PM 80.1 °F 81.7 °F 64.0 °F 58% 30.11 in 10.0 mi ENE 4.6 mph 18.4 mph N/A   Overcast
4:53 PM 79.0 °F - 64.9 °F 62% 30.12 in 10.0 mi ENE 10.4 mph 16.1 mph N/A   Overcast
5:44 PM 78.8 °F - 64.4 °F 61% 30.10 in 10.0 mi Variable 4.6 mph - N/A   Mostly Cloudy
5:53 PM 78.1 °F - 64.9 °F 64% 30.12 in 10.0 mi Variable 4.6 mph - N/A   Mostly Cloudy
6:53 PM 75.9 °F - 66.0 °F 71% 30.14 in 10.0 mi Variable 5.8 mph - N/A   Scattered Clouds
7:53 PM 73.0 °F - 66.0 °F 79% 30.16 in 10.0 mi Calm Calm - N/A   Partly Cloudy
8:53 PM 73.0 °F - 66.0 °F 79% 30.17 in 10.0 mi Calm Calm - N/A   Partly Cloudy
9:53 PM 72.0 °F - 66.0 °F 81% 30.18 in 10.0 mi Calm Calm - N/A   Clear
10:53 PM 71.1 °F - 66.0 °F 84% 30.18 in 10.0 mi Variable 3.5 mph - N/A   Clear
11:53 PM 71.1 °F - 66.0 °F 84% 30.17 in 10.0 mi Calm Calm - N/A   Partly Cloudy